Home > Weather > Swansea > Past weeks

Flag for United Kingdom Past Weather in Swansea, Wales, United Kingdom — Yesterday and Last 2 Weeks

Now
56 °F

Cool.


Feels Like: 54 °F
Forecast: 54 / 62 °F
Wind: 7 mph from West

Location: Mumbles

Current Time: Jun 25, 2016 at 6:10:50 AM

Latest Report: Jun 25, 2016 at 5:00 AM


Visibility: N/A

Pressure: 30.07 "Hg

Humidity: 89%

Dew Point: 52 °F

Location of SwanseaLocation

Past Weather in Swansea — Graph

°F

Swansea Temperature Yesterday

Maximum temperature yesterday: 63 °F (at 11:00 AM)
Minimum temperature yesterday: 56 °F (at 6:00 AM)
Average temperature yesterday: 60 °F

High & Low Weather Summary for the Past Weeks

 TemperatureHumidityPressure
High66 °F (Jun 11, 5:00 PM)100% (Jun 19, 1:00 PM)30.29 "Hg (Jun 19, 1:00 PM)
Low52 °F (Jun 18, 2:00 AM)62% (Jun 23, 12:00 PM)29.35 "Hg (Jun 15, 4:00 AM)
Average59 °F89%29.87 "Hg
* Reported Jun 10 4:00 AM — Jun 25 4:00 AM, Swansea, Weather by CustomWeather, © 2016

Note: Actual official high and low records may vary slightly from our data, if they occured in-between our weather recording intervals... More about our weather records

Advertising

Swansea Weather History for the Previous 24 Hours

Scroll right to see more
 ConditionsComfort  
Time TempWeatherWind HumidityBarometerVisibility
4:00 AM
Sat, Jun 25
56 °FCool.6 mph89%30.07 "HgN/A
3:00 AM55 °FCool.7 mph90%30.07 "HgN/A
2:00 AM56 °FCool.8 mph87%30.07 "HgN/A
1:00 AM56 °FCool.10 mph85%30.08 "HgN/A
12:00 AM56 °FCool.9 mph82%30.08 "HgN/A
11:00 PM
Fri, Jun 24
57 °FCool.9 mph85%30.08 "HgN/A
10:00 PM58 °FCool.15 mph81%30.07 "HgN/A
9:00 PM58 °FCool.16 mph81%30.07 "HgN/A
8:00 PM59 °FCool.21 mph83%30.06 "HgN/A
7:00 PM60 °FCool.23 mph81%30.06 "HgN/A
6:00 PM61 °FCool.25 mph78%30.06 "HgN/A
5:00 PM61 °FCool.24 mph75%30.06 "HgN/A
4:00 PM62 °FCool.23 mph75%30.06 "HgN/A
3:00 PM62 °FCool.23 mph72%30.06 "HgN/A
2:00 PM63 °FMild.17 mph77%30.06 "HgN/A
1:00 PM63 °FMild.17 mph73%30.07 "HgN/A
12:00 PM63 °FMild.16 mph79%30.07 "HgN/A
11:00 AM63 °FMild.16 mph79%30.06 "HgN/A
10:00 AM60 °FCool.18 mph80%30.07 "HgN/A
9:00 AM60 °FCool.16 mph82%30.06 "HgN/A
8:00 AM59 °FCool.17 mph86%30.06 "HgN/A
7:00 AM58 °FCool.15 mph86%30.05 "HgN/A
6:00 AM56 °FCool.9 mph87%30.05 "HgN/A
Weather by CustomWeather, © 2016

See weather overviewHow to use our weather pages